EKRAN 2 DEB, 11581

Orbit data source: Space-Track

EKRAN 2 DEB, 11581 is space debris in GEO originally from a launch on Tue, 20 Sep 1977 UTC launched from the Tyuratam Missile And Space Complex (TTMTR). Debris objects in space refer to the collection of defunct objects orbiting the Earth. Examples of debris include non-operational satellites, rocket bodies, and fragments generated from explosions, collisions, or faulty payload assembly.

Not visible in the next 10 days
Identifier
11581, 1977-092H
Orbit
GEO
Country
Flag of CISCIS
Related business
Manufacturer
Unknown
Mission
Spacecraft
Bus & Motor
Unknown
Mass
Unknown
Launch date (UTC)
1977-09-20 (49 years ago)
Launch vehicle
Unknown
Launch site
Tyuratam Missile And Space Complex (TTMTR)
Object type
Payload
Rocket body
Debris
Shape & HBR
Unknown shape, 1.1 m
Radar Cross Section
Large (>1 m²)

Expand to show TLE details & history
Last TLE update: 3 days ago

TLE from 3 days ago
0 EKRAN 2 DEB
1 11581U 77092H   26170.97549000  .00000051  00000-0  00000-0 0  9997
2 11581   4.1324 273.9912 0013456 243.1348 159.0770  1.00372824104392
Epoch: 2026-06-19T23:24Z
TLE epoch observation values (Epoch: 2026-06-19T23:24:42.335Z)
Latitude
2.76952°
Longitude
56.81481°
Altitude
35,810.349 km
Speed
3.072 km/s
True Right ascension
21h 04m 45s
True Declination
2° 46' 00"
Sunlit
Object was in daylight at epoch
Visualization orbit readout
Latitude
Unknown
Longitude
Unknown
Altitude
Unknown
Speed
Unknown
Apparent Right ascension
Unknown
Apparent Declination
Unknown
Sunlit
N/A
Visualization observer readout
Local Sidereal Time
23:27:18
Azimuth
Unknown
Elevation
Unknown
Doppler factor
Unknown
Orbital elements
Apogee altitude
35,816.057 km
Perigee altitude
35,702.657 km
Semi-major axis
42,137.494 km
Eccentricity
0.00135
Inclination
4.1324°
RAAN
273.9912°
Arg. of periapsis
243.1348°
True anomaly
159.13198°
Mean anomaly
159.077°
Eccentric anomaly
159.1045°
Mean motion
0.25092 °/min
Orbital period
1,434.7 mins
BSTAR
0
Loading maneuver chart data...
Computing Atmospheric mass density...
Loading historical data...
Loading historical data...
Loading historical data...
Loading historical data...
Loading historical data...
Loading historical data...
Loading historical data...

Documentation

Showing up to 5 results
|